Location: Sternwarte Zollern-Alb
(48.2880°N, 8.6780°E)
Time: 03:38:20
(UTC+02:00)

ISS - Pass Details

Date: 28 April 2026
Orbit: 414 x 424 km, 51.6° (Epoch: 19 May)

Event Time Altitude Azimuth Distance (km) Brightness Sun altitude
Exits shadow 05:33:51 - 281° (W) 2,117 -0.6 -6.5°
Reaches altitude 10° 05:35:24 10° 287° (WNW) 1,500 -1.4 -6.3°
Maximum altitude 05:38:39 45° 1° (N) 584 -2.7 -5.8°
Drops below altitude 10° 05:41:55 10° 76° (ENE) 1,506 0.7 -5.3°
Sets 05:44:05 0° 83° (E) 2,373 1.6 -5.0°
